Regional Weather Roundup
Issued by NWS

Home | Current Version | Previous Version | Graphics & Text | Print | Product List | Glossary On
Versions: 1 2 3 4 5 6 7 8 9 10 11 12 13 14 15 16 17 18 19 20 21 22 23 24 25 26 27 28 29 30 31 32 33 34 35 36 37 38 39 40 41 42 43 44 45 46 47 48 49 50
000
ASUS43 KLOT 221210
RWRIL

ILLINOIS REGIONAL WEATHER ROUNDUP
NATIONAL WEATHER SERVICE CHICAGO/ROMEOVILLE IL
700 AM CDT WED OCT 22 2014

NOTE: "FAIR" INDICATES FEW OR NO CLOUDS BELOW 12,000 FEET WITH NO
SIGNIFICANT WEATHER AND/OR OBSTRUCTIONS TO VISIBILITY.

* THESE STATIONS ARE NOT UNDER NWS QUALITY CONTROL. THEY ALSO MAY NOT
  REPORT WEATHER SUCH AS PRECIPITATION OR FOG.

ILZ001-002-007-009-015-016-024-221300-
NORTHWEST ILLINOIS

CITY           SKY/WX    TMP DP  RH WIND       PRES   REMARKS
MOLINE         PTCLDY    34  31  88 E3        30.32R
6HR MIN TEMP:  31; 6HR MAX TEMP:  37;

STERLING*      CLEAR     32  28  86 CALM      30.33R
SAVANNA*       CLEAR     34  32  94 NE5       30.33R WCI  30
$$

ILZ003-004-008-010-011-017-018-221300-
NORTH CENTRAL ILLINOIS

CITY           SKY/WX    TMP DP  RH WIND       PRES   REMARKS
ROCKFORD       CLEAR     33  30  88 CALM      30.35R
6HR MIN TEMP:  32; 6HR MAX TEMP:  37;

FREEPORT*      CLOUDY    27  26  98 CALM      30.35R FOG
ROCHELLE*      CLEAR     28  28  99 CALM      30.34R FOG
DE KALB*       CLEAR     33  32  96 NE3       30.33R
PERU*          CLEAR     33  32  96 NE3       30.34R
$$

ILZ005-006-012>014-019>023-221300-
NORTHEAST ILLINOIS

CITY           SKY/WX    TMP DP  RH WIND       PRES   REMARKS
CHICAGO-OHARE  PTCLDY    41  38  89 NW5       30.32R
6HR MIN TEMP:  41; 6HR MAX TEMP:  49;

CHICAGO-MIDWAY MOCLDY    45  38  76 CALM      30.32R
6HR MIN TEMP:  43; 6HR MAX TEMP:  52;

AURORA         CLEAR     31  28  89 NW3       30.33R
6HR MIN TEMP:  30; 6HR MAX TEMP:  35;

LANSING*       CLEAR     33  33  99 CALM      30.33S
JOLIET*        CLEAR     32  32  99 CALM      30.33R FOG
WAUKEGAN       PTCLDY    35  33  92 CALM      30.32R
6HR MIN TEMP:  35; 6HR MAX TEMP:  39;

DUPAGE AIRPORT CLEAR     36  33  89 CALM      30.32R
6HR MIN TEMP:  35; 6HR MAX TEMP:  42;

KANKAKEE*      CLEAR     34  33  99 NE3       30.34R
WHEELING       CLOUDY    43  38  82 NW5       30.34R
6HR MIN TEMP:  43; 6HR MAX TEMP:  50;

MORRIS*        CLEAR     35  35 100 CALM      30.32R
ROMEOVILLE*    CLEAR     36  36 100 CALM      30.32S
NORTHERLY ISL    N/A     47  39  74 SE13        N/A
$$

LMZ740>746-221300-
SOUTHERN LAKE MICHIGAN

STATION/POSITION SKY/WX   TEMP    WIND        PRES    VSBY  WAVE
                          AIR SEA DIR/SP/G                  HT/PER
                          (F)     (DEG/KT/KT) (MB)    (MI)  (FT/S)
SOUTHERN BUOY              46 54  110/  8/ 10 1028.0R         2/ 4
WAUKEGAN HARBOR            40     320/  3/  3   N/A
BURNHAM HARBOR             47     160/  9/ 16   N/A
CALUMET HARBOR             43     140/  5/  7 1025.7S
MICHIGAN CITY              39     100/  8/ 10   N/A
$$

ILZ025>027-034>036-040-047-049-050-058-095>099-221300-
WEST-CENTRAL ILLINOIS

CITY           SKY/WX    TMP DP  RH WIND       PRES   REMARKS
QUINCY         CLEAR     40  37  89 E6        30.29R
GALESBURG*     PTCLDY    37  36  95 CALM      30.31R
MACOMB*        FOG       31  31 100 CALM      30.33S VSB 3/4
JACKSONVILLE*  CLEAR     37  36  95 E5        30.31R WCI  33
PITTSFIELD*    CLEAR     38  37  96 NE3       30.30F FOG
$$

ILZ028>032-037-038-041>044-048-051>054-059>061-221300-
CENTRAL ILLINOIS

CITY           SKY/WX    TMP DP  RH WIND       PRES   REMARKS
PONTIAC        FOG       32  32 100 CALM      30.34R VSB 3/4
BLOOMINGTON    CLEAR     37  36  96 NE5       30.33R WCI  33
DECATUR        CLEAR     37  34  89 NE5       30.31R WCI  33
PEORIA         CLEAR     39  35  86 NE5       30.32R
6HR MIN TEMP:  38; 6HR MAX TEMP:  43;

LACON*         CLEAR     32  31  97 CALM      30.32S FOG
LINCOLN*       CLEAR     35  34  96 CALM      30.31S
SPRINGFIELD    CLEAR     35  33  92 NE5       30.31R WCI  31
6HR MIN TEMP:  35; 6HR MAX TEMP:  42;

TAYLORVILLE    FAIR      34  34 100 N3        30.31R FOG
$$

ILZ033-039-045-046-055>057-062-063-221300-
EAST-CENTRAL ILLINOIS

CITY           SKY/WX    TMP DP  RH WIND       PRES   REMARKS
CHAMPAIGN      CLEAR     36  34  92 NE5       30.31R WCI  32
DANVILLE*      CLEAR     36  33  92 NE5       30.28S WCI  32
RANTOUL*       CLEAR     40  34  81 NE3       30.32R
MATTOON        CLEAR     36  34  92 NE3       30.30R
PARIS*         CLEAR     37  37  97 CALM      30.31R
$$

ILZ079-100>102-221300-
SOUTHWEST ILLINOIS

CITY           SKY/WX    TMP DP  RH WIND       PRES   REMARKS
ALTON          CLEAR     39  37  93 CALM      30.30R
BELLEVILLE     CLEAR     39  38  99 NW1       30.29R
CAHOKIA*       CLEAR     38  37  97 CALM      30.30R
SPARTA*        CLEAR     39  38  99 CALM      30.30R
$$

ILZ064>066-069>071-074>076-080>082-084>086-088>090-092>094-221300-
SOUTH-CENTRAL ILLINOIS

CITY           SKY/WX    TMP DP  RH WIND       PRES   REMARKS
CARBONDALE     FOG       35  34  96 CALM      30.28R VSB 1
6HR MIN TEMP:  34; 6HR MAX TEMP:  45;

CAIRO*         CLEAR     43  39  86 CALM      30.26R
EFFINGHAM*     CLEAR     39  36  89 CALM      30.30R
MARION         CLEAR     37  36  93 CALM      30.28R
MT. VERNON     CLEAR     39  36  87 NE3       30.29R
CENTRALIA*     CLEAR     38  37  93 CALM      30.29R FOG
SALEM*         CLEAR     42  40  93 NE3       30.30R
METROPOLIS*    CLEAR     42  42 100 CALM      30.25R
$$

ILZ067-068-072-073-078-083-087-091-221300-
SOUTHEAST ILLINOIS

CITY           SKY/WX    TMP DP  RH WIND       PRES   REMARKS
LAWRENCEVILLE  CLEAR     41  39  93 NE7       30.29R
FLORA*         CLEAR     39  38  94 CALM      30.30R
FAIRFIELD*     CLEAR     39  38  97 N5        30.28R
HARRISBURG*    CLEAR     40  40 100 CALM      30.29R FOG
ROBINSON*      CLEAR     38  38 100 N3        30.31R
CARMI*         CLEAR     41  41 100 CALM      30.28R
$$

ABBREVIATIONS USED IN REMARKS
   TC - TEMPERATURE IN CELSIUS
  WCI - WIND CHILL INDEX
   HX - HEAT INDEX
  VSB - VISIBILITY
$$




USA.gov is the U.S. government's official web portal to all federal, state and local government web resources and services.